Location: Conover
(35.7170°N, 81.2250°W)
Time: 09:53:51
(UTC-04:00)

Daily predictions for brighter satellites

Satellite Brightness Start Highest point End
(mag) Time Altitude Azimuth Time Altitude Azimuth Time Altitude Azimuth
Meteor 2-5 Rocket 4.3 19:57:13 10° NNW 20:02:57 67° W 20:08:46 10° S
Meteor 1-4 Rocket 3.3 20:04:02 10° SSE 20:07:02 28° E 20:10:03 10° NNE
Helios 1B rocket 4.1 20:07:34 10° ENE 20:09:44 14° E 20:11:54 10° SE
In-Cosmos 22 4.2 20:06:53 10° N 20:12:03 52° ENE 20:17:10 10° SSE
Spot 2 Rocket 4.2 20:08:19 10° SE 20:12:51 33° ENE 20:17:23 10° N
Lacrosse 4 Rocket 4.4 20:10:57 10° W 20:13:03 14° NW 20:15:08 10° NNW
Cosmos 1378 3.8 20:10:18 10° NNW 20:14:00 60° W 20:17:40 10° S
Lacrosse 5 rocket 3.4 20:13:52 10° N 20:15:43 13° NNE 20:17:31 10° ENE
Cosmos 2344 4.3 20:11:58 10° SW 20:19:31 60° NW 20:27:50 10° NNE
Cosmos 1544 3.1 20:16:12 10° S 20:19:45 56° E 20:23:22 10° NNE
Cosmos 1867 3.5 20:15:42 10° SSW 20:21:07 78° ESE 20:26:36 10° NNE
Cosmos 1076 Rocket 4.2 20:17:35 10° NNE 20:21:24 32° ENE 20:25:11 10° SE
Cosmos 1934 Rocket 4.2 20:15:36 10° S 20:21:43 76° W 20:27:48 10° N
H-2A R/B (2) 2.6 20:19:43 10° WSW 20:22:14 29° S 20:26:56 10° ESE
FENGYUN 3A 3.7 20:17:37 10° SSE 20:22:59 67° ENE 20:28:20 10° N
CZ-2D R/B 4.3 20:19:49 10° SE 20:23:05 27° ENE 20:26:23 10° NNE
Okean 3 Rocket 3.6 20:21:21 10° N 20:25:43 60° E 20:30:05 10° SSE
Cosmos 1805 3.1 20:22:16 10° S 20:26:09 70° E 20:30:02 10° NNE
ALOS 2.2 20:24:18 10° SSE 20:28:58 81° ENE 20:33:39 10° N
Helios 1A 4.3 20:26:17 12° ESE 20:29:04 21° ENE 20:32:14 10° NNE
Cosmos 1833 Rocket 3.3 20:24:50 10° N 20:29:59 36° ENE 20:34:47 12° SE
Envisat 4.4 20:28:31 13° ESE 20:31:13 19° ENE 20:34:39 10° NNE
Abrixas 2.4 20:31:10 10° NW 20:33:59 60° NE 20:35:43 20° ESE
Cosmos 2278 Rocket 3.7 20:31:45 10° SW 20:37:04 41° WNW 20:42:25 10° N
RESURS DK-1 4.0 20:33:39 10° NW 20:37:27 36° WSW 20:41:14 10° S
Tiangong 1 3.0 20:35:30 10° W 20:37:52 22° SW 20:40:12 10° SSE
ATLAS 5 CENTAUR R/B 1.6 20:34:57 10° SSW 20:39:33 75° ESE 20:44:30 10° NE
Cosmos 1125 Rocket 3.6 20:35:54 10° SSW 20:41:05 81° WNW 20:46:20 10° NNE
SeaSat 1 2.4 20:36:39 10° SSE 20:41:32 71° ENE 20:46:28 10° NNW
Cosmos 1733 3.8 20:39:09 10° SSE 20:42:39 34° E 20:46:12 10° NNE
Cosmos 1470 3.2 20:40:33 10° SSE 20:44:15 39° E 20:47:58 10° NNE
GPS 2-05 Rocket1 2.8 20:42:41 10° W 20:46:14 85° S 20:48:14 24° E
Geosat 4.1 20:41:53 10° NE 20:46:49 53° ESE 20:51:41 10° S
Cosmos 1048 Rocket 4.0 20:41:49 10° N 20:46:52 58° ENE 20:51:40 11° SSE
Cosmos-2242 3.2 20:42:51 10° SSE 20:46:55 46° E 20:50:59 10° NNE
Cosmos 1766 Rocket 3.8 20:43:50 10° N 20:48:10 48° E 20:52:21 11° SSE
OAO 2 Rocket 4.1 20:43:59 10° SW 20:48:41 36° SSE 20:51:18 22° ESE
GP-B 3.3 20:46:10 10° SSE 20:50:24 47° E 20:54:41 10° N
HJ-1C 4.4 20:49:33 10° S 20:52:50 48° W 20:56:09 10° NNW
Cosmos 2297 4.2 20:49:35 10° SSW 20:55:14 65° WNW 21:00:58 10° NNE
USA 186 2.6 20:58:05 23° NNE 20:58:05 23° NNE 20:59:10 10° N
H-2A R/B 3.1 20:53:54 10° S 20:57:45 69° W 21:01:42 10° NNW
BREEZE-M DEB (TANK) 4.5 20:55:19 10° W 20:58:05 35° NNW 21:04:42 10° NE
Resurs 01 Rocket 1.8 20:55:30 10° S 20:59:53 73° WSW 21:04:19 10° NNW
CZ-4B DEB 4.0 21:01:12 25° NE 21:01:12 25° NE 21:03:12 10° NNE
Cosmos 1340 Rocket 3.3 20:57:51 10° N 21:01:38 38° ENE 21:02:27 34° ESE
ISS -2.1 21:07:14 10° W 21:10:11 31° NW 21:12:44 13° NNE
Cosmos 2082 Rocket 2.1 21:04:38 10° NNW 21:10:21 89° ENE 21:14:42 18° SSE
Cosmos 2100 Rocket 3.9 21:06:57 10° S 21:13:15 79° E 21:19:38 10° N
Meteor 1-29 2.8 21:11:52 10° NNE 21:15:20 71° ESE 21:16:41 34° S
SAR-Lupe-4 3.4 21:16:29 41° SSE 21:17:40 89° W 21:21:16 10° NNW
Cosmos 1743 Rocket 3.7 21:15:01 10° N 21:19:20 48° E 21:19:41 47° E
Meteor 1-16 Rocket 4.4 21:13:52 10° SSE 21:19:28 50° E 21:25:10 10° NNE
Cosmos 1500 Rocket 4.5 21:16:20 10° NNE 21:19:25 31° NE 21:19:25 31° NE
Cosmos 1271 Rocket 3.4 21:19:35 10° SSW 21:23:32 58° W 21:27:31 10° N
COSMOS 2487 3.5 21:21:44 10° NNW 21:25:09 44° WSW 21:26:45 26° SSW
Aurora 2 Rocket 4.2 21:21:23 10° WSW 21:27:38 30° S 21:28:56 27° SSE
Cosmos 2251 Rocket 4.0 21:23:26 10° N 21:28:28 41° ENE 21:28:42 41° ENE
H-2A R/B 4.2 21:23:03 10° WSW 21:29:05 63° S 22:46:11 10° ESE
H-2A R/B 4.2 21:23:03 10° WSW 21:29:06 63° S 22:46:11 10° ESE
Cosmos 1674 3.8 21:30:21 10° NNW 21:33:57 42° W 21:36:15 19° SSW
USA 215 3.1 21:30:20 10° NE 21:36:51 70° SE 21:43:21 10° SW
Cosmos 1802 Rocket 3.9 21:30:56 10° S 21:37:04 85° W 21:43:16 10° N
Cosmos 1939 Rocket 3.1 21:42:56 66° N 21:42:56 66° N 21:46:34 10° N
Cosmos 2151 4.4 21:39:55 10° N 21:42:00 26° NNE 21:42:00 26° NNE
Helios 1B rocket 3.9 21:41:21 10° N 21:45:10 38° WNW 21:48:58 10° SW
SJ-11-01 4.3 21:48:14 70° SSW 21:48:45 80° WSW 21:53:29 10° NNW
Cosmos 1842 Rocket 3.7 21:50:28 69° WSW 21:50:42 71° W 21:55:06 10° N
Lacrosse 5 rocket 2.4 21:51:36 10° NW 21:54:09 39° NW 21:54:09 39° NW
Cosmos 2369 Rocket 4.1 22:01:47 17° NNE 22:01:47 17° NNE 22:03:04 10° NNE
Cosmos 494 Rocket 4.0 21:54:27 10° NNW 21:59:02 70° N 21:59:02 70° N
Gblst 52 Del rocket 4.4 22:00:19 10° WSW 22:06:18 66° NW 22:07:38 50° NNE
Envisat 3.9 22:08:43 39° SW 22:09:50 45° W 22:14:43 10° NNW
Cosmos 1833 Rocket 4.4 22:09:04 10° NW 22:13:42 27° WSW 22:16:33 18° SW
ERS-1 Rocket 3.8 22:23:16 48° NW 22:23:16 48° NW 22:27:01 10° NNW
H-2A R/B 4.1 22:31:01 19° NNE 22:31:01 19° NNE 22:32:35 10° N
CZ-3 Stage 3 3.4 22:18:14 10° W 22:37:50 53° SSW 22:37:50 53° SSW
